User: anonymous   Login
Location: Newark
(52.9300°N, 3.3400°W)
Time: 14:04:38
(UTC+00:00)
Language:

ISS - Orbit

View from above orbital plane
View from above orbital plane
View from above satellite
View from above satellite

Ground track
Ground track

The orbit data is extracted from the following two-line orbital elements,

1 25544U 98067A   21101.34287241  .00000427  00000-0  15971-4 0  9996
2 25544  51.6453 313.3477 0002880 214.1322 327.8670 15.48879205278231
Epoch (UTC): 11 April 2021 08:13:44
Eccentricity: 0.0002880
inclination: 51.6453°
perigee height: 418 km
apogee height: 422 km
right ascension of ascending node: 313.3477°
argument of perigee: 214.1322°
revolutions per day: 15.48879205
mean anomaly at epoch: 327.8670°
orbit number at epoch: 27823

The dashed part of the orbit path shows where the satellite is in the earth's shadow,  

DLR